SCP
0 0 0 -0 -0 -0 -0 -0 -0 -0 -0 -0 -0 -0 -0 -0 0 0 0 0 0 0 0 0 0 0 0 0 0 0 0 0 0 0 0 0 0 0 0 0 0 0 0 0 0 0 0 0 0 0 0 0 0 0
-0 0 0 -0 -0 -0 -0 0 -0 -0 -0 -0 -0 -0 -0 -0 0 0 0 0 0 0 0 0 0 0 0 0 0 0 0 0 0 0 0 0 0 0 0 0 0 0 0 0 0 0 0 0 0 0 0 0 0 0
0 0 -0 -0 -0 -0 -0 -0 -0 0 0 -0 -0 -0 -0 0 0 0 0 0 0 0 0 0 0 0 0 0 0 0 0 0 0 0 0 0 0 0 0 0 0 0 0 0 0 0 0 0 0 0 0 0 0 0
0 0 -0 -0 -0 -0 -0 0 0 0 0 0 -0 -0 -0 0 0 0 0 0 0 0 0 0 0 -0 0 -0 -0 0 0 0 0 0 0 0 0 0 0 0 0 0 0 0 0 0 0 0 0 0 0 0 0 0
0 0 -0 -0 -0 -0 -0 -0 -0 0 0 0 -0 0 -0 0 0 0 0 0 0 0 0 0 0 0 0 -0 -0 0 0 0 0 0 0 0 0 0 0 0 0 0 0 0 0 0 0 0 0 0 0 0 0 0
-0 0 -0 -0 -0 -0 -0 -0 -0 0 0 0 0 0 0 0 0 0 0 0 0 0 0 0 0 0 0 -0 0 0 0 0 0 0 0 0 0 0 0 0 0 0 0 0 0 0 0 0 0 0 0 0 0 0
-0 -0 -0 -0 -0 -0 -0 -0 -0 -0 0 0 0 0 0 0 0 0 0 0 0 0 0 0 0 -0 0 0 0 0 0 0 0 0 0 0 0 0 0 0 0 0 0 0 0 0 0 0 0 0 0 0 0 0
-0 -0 -0 -0 -0 -0 -0 -0 -0 -0 -0 -0 0 0 0 -0 0 0 0 0 0 0 0 0 0 0 0 -0 0 0 0 0 0 0 0 0 0 0 0 0 0 0 0 0 0 0 0 0 0 0 0 0 0 0
-0 -0 -0 0 0 0 0 0 0 -0 -0 -0 -0 0 0 0 0 0 0 0 0 0 0 0 0 0 0 0 0 0 0 0 0 0 0 0 0 0 0 0 0 0 0 0 0 0 0 0 0 0 0 0 0 0
0 0 0 0 0 0 0 0 0 0 0 0 0 0 0 0 0 0 0 0 0 0 0 0 0 0 0 0 0 0 0 0 0 0 0 0 0 0 0 0 0 0 0 0 0 0 0 0 0 0 0 0 0 0
0 0 0 0 0 0 0 0 0 0 0 0 0 0 0 0 0 0 0 0 0 0 0 0 0 0 0 0 0 0 0 0 0 0 0 0 0 0 0 0 0 0 0 0 0 0 0 0 0 0 0 0 0 0
0 0 0 0 0 0 0 0 0 0 0 0 0 0 0 0 0 0 0 0 0 0 0 0 0 0 0 0 0 0 0 0 0 0 0 0 0 0 0 0 0 0 0 0 0 0 0 0 0 0 0 0 0 0
0 0 0 0 0 0 0 0 -0 0 0 0 0 0 0 0 0 0 0 0 0 0 0 0 0 0 0 0 0 0 0 0 0 0 0 0 0 0 0 0 0 0 0 0 0 0 0 0 0 0 0 0 0 0
0 0 0 0 0 0 0 0 -0 0 0 0 0 0 0 0 0 0 0 0 0 0 0 0 0 0 0 0 0 0 0 0 0 0 0 0 -0 0 0 0 0 0 0 0 0 0 0 0 0 0 0 0 0 0
0 0 0 0 0 0 0 -0 0 0 0 0 0 -0 -0 0 0 0 0 0 0 0 0 0 0 0 0 0 0 0 0 0 0 0 0 0 0 0 0 0 0 0 0 0 0 0 0 0 0 0 0 0 0 0
0 0 0 0 0 0 0 0 0 0 0 0 0 0 0 0 0 0 0 0 0 0 0 0 0 0 0 0 0 0 0 -0 -0 0 0 0 0 0 0 0 0 0 0 0 0 0 0 0 0 0 0 0 0 0
0 0 0 0 0 0 0 0 0 0 0 0 0 0 0 0 0 0 0 0 0 0 0 0 0 0 0 0 0 0 0 0 0 0 0 0 0 0 0 0 0 0 0 0 0 0 0 0 0 0 0 0 0 0
0 0 0 0 0 0 0 0 0 0 0 0 0 0 0 0 0 0 0 0 0 0 0 0 0 0 0 0 0 0 0 0 0 0 0 0 0 0 0 0 0 0 0 0 0 0 0 0 0 0 0 0 0 0
0 0 0 0 0 0 0 0 0 0 0 0 0 0 0 0 0 0 0 0 0 0 0 0 0 0 0 0 0 0 0 0 0 0 0 0 0 0 0 0 0 0 0 0 0 0 0 0 0 0 0 0 0 0
0 0 0 0 0 0 0 0 0 0 0 0 0 0 0 0 0 0 0 0 0 0 0 0 0 0 0 0 0 0 0 0 0 0 0 0 0 0 0 0 0 0 0 0 0 0 0 0 0 0 0 0 0 0
0 0 0 0 0 0 0 0 0 0 0 0 0 0 0 0 0 0 0 0 0 0 0 0 0 0 0 0 0 0 0 0 0 0 0 0 0 0 0 0 0 0 0 0 0 0 0 0 0 0 0 0 0 0
0 0 0 0 0 0 0 0 0 0 0 0 0 0 0 0 0 0 0 0 0 0 0 0 0 0 0 0 0 0 0 0 0 0 0 0 0 0 0 0 0 0 0 0 0 0 0 0 0 0 0 0 0 0
0 0 0 0 0 0 0 0 0 0 0 0 0 0 0 0 0 0 0 0 0 0 0 0 0 0 0 0 0 0 0 0 0 0 0 0 0 0 0 0 0 0 0 0 0 0 0 0 0 0 0 0 0 0
0 0 0 0 0 0 0 0 0 0 0 0 0 0 0 0 0 0 0 0 0 0 0 0 0 0 0 0 0 0 0 0 0 0 0 0 0 0 0 0 0 0 0 0 0 0 0 0 0 0 0 0 0 0
0 0 0 0 0 0 0 0 0 0 0 0 0 0 0 0 0 0 0 0 0 0 0 0 0 0 0 0 0 0 0 0 0 0 0 0 0 0 0 0 0 0 0 0 0 0 0 0 0 0 0 0 0 0
0 0 0 0 0 0 0 0 0 0 0 0 0 0 0 0 0 0 0 0 0 0 -0 -0 0 0 0 0 0 0 0 0 -0 0 0 0 0 0 0 0 0 0 0 0 0 0 0 0 0 0 0 0 0 0
0 0 0 0 0 0 0 0 0 0 0 0 0 0 0 0 0 0 0 0 0 0 0 0 0 0 0 0 0 0 0 0 0 0 0 0 0 0 0 0 0 0 0 0 0 0 0 0 0 0 0 0 0 0
0 0 0 0 0 0 0 0 0 0 0 0 0 0 0 0 0 0 0 0 0 0 0 0 0 0 0 0 0 0 0 0 0 0 0 0 0 0 0 0 0 0 0 0 0 0 0 0 0 0 0 0 0 0
0 0 0 0 0 0 0 0 0 0 0 0 0 0 0 0 0 0 0 0 0 0 0 0 0 0 0 0 0 0 0 0 0 0 0 0 0 0 0 0 0 0 0 0 0 0 0 0 0 0 0 0 0 0
0 0 0 0 0 0 0 0 0 0 0 0 0 0 0 0 0 0 0 0 0 0 0 0 0 0 0 0 0 0 0 0 0 0 0 0 0 0 0 0 0 0 0 0 0 0 0 0 0 0 0 0 0 0
0 0 0 0 0 0 0 0 0 0 0 0 0 0 0 0 0 0 0 0 0 0 0 0 0 0 0 0 0 0 0 0 0 0 0 0 0 0 0 0 0 0 0 0 0 0 0 0 0 0 0 0 0 0
0 0 0 0 0 0 0 0 0 0 0 0 0 0 0 0 0 0 0 0 0 0 0 0 0 0 0 0 0 0 0 0 0 0 0 0 0 0 0 0 0 0 0 0 0 0 0 0 0 0 0 0 0 0
0 0 0 0 0 0 0 0 0 0 0 0 0 0 0 0 0 0 0 0 0 0 0 0 0 0 0 0 0 0 0 0 0 0 0 0 0 0 0 0 0 0 0 0 0 0 0 0 0 0 0 0 0 0
Wind_Speed_500mb
65 75 79 77 72 57 46 38 34 30 18 35 40 30 99 115 110 105 80 58 56 17 16 26 29 16 32 42 28 11 21 18 5 14 15 7 8 11 7 7 10 15 15 7 5 2 22 13 10 18 9 2 3 28
61 72 73 75 67 49 31 23 27 21 21 51 63 74 114 95 95 93 73 53 39 24 16 20 21 13 16 28 35 23 9 9 10 7 6 7 4 5 11 9 7 7 9 12 15 12 5 14 5 12 7 8 10 21
54 64 70 67 54 46 25 15 18 11 27 54 58 94 112 94 82 73 69 64 43 18 16 9 7 9 17 30 20 27 11 19 20 15 8 5 6 7 10 8 8 4 3 7 7 11 14 14 21 9 16 5 11 13
48 54 60 57 51 46 15 8 10 11 20 42 61 78 95 85 73 58 62 57 42 18 6 4 9 14 38 30 45 34 14 25 25 23 5 5 6 7 5 4 7 7 17 12 8 7 4 16 27 30 19 13 18 24
35 50 56 57 50 42 12 5 7 12 18 26 72 93 106 88 73 54 43 54 53 24 7 8 12 13 20 30 47 31 40 21 11 6 5 5 7 8 4 3 6 10 13 13 13 21 17 17 50 39 41 41 41 48
34 38 51 58 47 35 27 1 9 14 24 20 61 46 86 82 86 64 14 48 58 42 11 5 8 8 8 11 21 35 35 30 7 8 5 7 12 7 8 9 10 41 36 28 10 25 25 8 25 41 46 49 50 50
32 32 37 48 52 37 30 19 11 19 24 27 27 43 54 68 68 33 16 38 55 33 8 4 2 7 11 17 9 8 15 8 7 8 4 6 4 18 6 8 9 42 52 40 25 34 18 33 29 48 49 50 50 49
27 29 28 37 43 37 29 32 22 17 23 32 35 48 49 48 40 24 37 61 49 20 11 4 4 3 6 6 5 5 7 7 11 5 2 5 8 2 7 10 12 20 33 32 37 33 26 35 43 54 55 60 58 61
23 25 24 23 29 38 28 32 40 42 64 66 64 62 56 32 16 20 34 39 31 11 6 4 7 4 7 6 6 9 7 4 5 2 1 3 5 9 11 9 18 22 34 37 45 28 38 55 67 67 69 68 65 65
20 19 22 18 25 23 23 16 25 31 41 36 42 12 10 18 47 39 13 7 5 3 6 4 4 5 7 2 4 4 2 2 2 0 6 0 5 13 11 13 15 28 33 48 50 33 53 55 67 73 75 51 61 68
17 16 16 17 23 19 12 7 8 26 19 5 9 10 42 27 9 9 5 6 4 3 7 6 8 6 5 3 5 7 3 3 2 2 4 1 6 7 30 27 25 26 38 51 55 54 58 70 83 81 70 74 72 65
15 13 12 13 17 13 8 4 7 10 9 13 35 33 11 6 7 7 1 3 3 4 7 4 5 8 8 7 5 5 3 1 5 4 7 5 7 13 28 31 30 39 48 52 49 54 57 65 75 79 80 68 60 56
14 11 9 9 9 7 9 21 41 50 40 21 13 7 5 4 10 9 9 4 3 7 13 10 6 9 9 7 5 4 5 5 5 2 7 8 5 13 29 34 40 39 41 44 47 51 52 58 69 76 68 57 52 45
13 9 6 5 3 5 5 35 30 23 6 2 8 5 5 2 5 4 3 5 4 14 25 20 5 6 8 5 5 8 4 6 5 5 10 5 14 25 35 42 49 44 44 43 42 42 46 56 61 61 56 54 51 41
12 9 6 2 6 6 5 41 31 19 6 3 5 3 5 1 3 2 10 12 9 31 32 12 9 4 3 6 4 7 4 8 9 8 6 5 23 38 46 48 49 47 46 45 43 43 47 55 61 57 51 50 45 42
12 10 8 3 9 13 9 22 25 9 1 4 6 4 2 3 3 4 16 13 22 34 22 12 5 3 2 3 3 7 8 10 7 5 3 22 39 43 47 50 47 44 40 42 46 53 55 53 50 51 49 45 41 40
14 8 7 6 10 14 18 14 5 4 5 5 4 8 8 8 4 5 19 21 20 5 4 5 6 3 4 2 4 5 6 4 4 5 21 36 49 57 56 54 51 49 52 52 51 50 49 49 49 50 48 43 38 34
18 10 9 13 18 22 17 6 6 6 6 7 3 4 5 9 21 21 23 9 2 3 3 3 6 4 5 5 4 3 3 10 18 22 32 40 50 52 52 55 53 51 51 49 46 45 45 46 46 44 40 37 32 27
15 12 13 24 16 9 6 6 6 6 2 4 7 12 17 20 29 24 13 13 13 12 11 5 5 1 3 1 4 10 18 12 16 28 34 37 45 48 52 53 51 49 49 48 48 48 45 37 32 30 26 24 19 15
17 16 18 21 12 7 7 7 6 9 3 4 6 9 12 12 21 19 14 8 7 6 9 5 1 2 2 3 10 28 34 46 55 48 41 37 38 44 47 48 49 49 48 44 41 37 33 28 21 18 17 13 9 7
25 21 25 23 16 11 8 6 8 6 9 6 7 10 10 12 11 11 14 15 14 4 4 10 11 22 24 23 25 40 45 40 48 51 56 51 48 55 55 52 47 41 37 33 29 24 18 14 15 14 11 7 3 4
25 25 15 11 9 7 9 7 10 10 7 7 8 8 7 5 5 10 9 17 5 7 7 16 29 32 33 32 34 32 32 33 49 59 60 59 54 45 39 34 29 28 23 19 15 15 16 15 12 9 5 4 6 8
29 22 8 7 8 7 2 3 6 6 6 1 5 6 5 4 5 6 5 4 6 10 26 30 35 35 40 39 34 31 28 39 49 47 41 37 33 30 30 26 18 18 22 23 19 15 14 11 8 7 7 8 10 12
23 8 6 6 7 3 4 5 6 7 5 5 6 5 2 2 3 6 3 2 6 25 26 27 24 32 33 30 32 34 34 34 35 34 30 28 32 31 25 27 26 24 19 17 17 14 11 8 7 8 9 13 17 22
7 5 8 6 5 9 7 5 5 6 4 2 7 4 2 4 5 5 2 2 17 27 28 27 25 25 31 28 27 26 24 19 26 34 27 18 25 31 27 23 20 16 13 10 11 8 5 6 9 12 16 21 25 29
8 3 7 9 2 7 8 7 7 9 7 6 3 2 4 6 6 1 1 6 14 27 30 28 28 22 23 24 27 24 26 22 21 33 31 22 16 14 18 16 15 13 10 8 5 5 7 9 12 16 20 25 31 37
7 4 4 5 10 13 8 8 8 7 7 8 6 5 6 7 2 3 4 6 10 24 28 21 16 16 27 30 24 23 26 29 26 26 27 26 20 14 10 6 9 7 6 3 3 3 5 9 16 22 28 33 37 41
6 9 11 4 7 6 9 6 6 6 6 7 8 6 10 11 3 6 6 12 31 39 33 25 22 24 31 30 31 33 33 30 28 27 28 25 17 11 9 8 9 7 3 1 3 8 16 21 26 31 34 35 36 38
4 14 23 9 7 6 3 7 6 5 21 10 8 5 5 8 11 15 17 25 35 34 32 35 35 33 33 32 29 27 26 25 25 27 23 24 20 17 14 10 7 4 2 9 16 22 27 30 32 31 31 32 36 41
2 7 9 5 7 2 1 4 11 23 21 22 19 21 22 23 29 27 24 22 30 33 34 34 34 29 31 28 28 27 22 17 11 9 9 16 17 19 13 8 2 7 14 19 24 26 27 27 27 29 32 35 37 38
15 10 10 7 7 9 21 42 48 41 30 32 41 40 26 18 36 30 28 27 25 32 36 36 30 22 19 21 21 20 19 15 14 14 15 19 20 13 7 3 9 15 20 23 24 24 25 27 30 32 33 35 36 36
7 7 8 8 6 8 21 19 15 15 16 21 13 15 13 11 10 8 18 25 24 24 20 17 15 23 23 22 19 17 21 28 25 23 20 16 12 7 5 10 15 18 19 19 20 23 25 27 30 33 34 33 32 30
11 16 19 10 5 5 9 12 10 8 13 8 8 7 7 7 6 6 10 19 22 22 23 24 26 32 29 25 27 29 27 24 22 18 14 11 9 9 12 13 13 14 16 19 21 24 27 31 33 32 30 27 25 25
Wind_Direction_500mb
332 334 335 335 333 329 324 328 331 320 252 204 211 177 160 167 170 165 162 174 170 100 129 180 182 162 194 197 210 186 199 203 283 156 184 179 167 199 138 145 170 161 154 171 148 161 253 154 91 173 220 26 128 191
336 343 341 336 337 335 325 331 344 347 150 152 164 163 163 152 154 167 166 180 174 164 124 134 165 158 174 200 222 222 269 161 186 128 145 133 140 147 158 193 180 183 175 170 189 206 265 217 194 209 203 183 166 185
342 345 345 343 342 352 333 337 358 52 176 174 173 167 170 171 171 175 173 172 168 106 90 128 163 259 282 260 256 229 253 231 181 150 125 124 166 152 171 204 86 238 174 151 109 239 230 227 230 210 193 172 182 206
347 351 352 349 348 3 346 6 24 107 151 181 185 180 180 163 166 172 178 180 174 134 121 153 175 221 257 264 256 243 230 234 175 148 106 150 133 195 177 142 139 175 151 166 254 262 3 257 232 222 212 207 184 169
343 357 1 360 352 6 13 32 85 101 118 148 173 173 179 177 177 176 168 179 187 180 157 141 154 200 223 245 245 238 240 213 176 125 118 149 127 136 68 86 208 190 171 182 212 179 184 213 221 210 198 189 181 167
335 343 3 9 4 9 21 170 149 123 138 126 161 162 191 191 192 177 141 186 192 187 140 138 159 164 207 209 232 236 239 216 216 108 135 161 151 132 160 197 222 199 208 208 204 190 197 221 203 201 190 180 172 170
342 333 353 10 14 12 26 55 98 164 153 155 149 163 153 157 160 162 176 172 172 167 121 27 70 169 159 139 126 102 144 126 126 111 129 135 149 166 161 207 217 205 213 208 185 151 120 164 182 186 182 168 163 158
338 338 339 4 13 30 59 39 54 176 175 176 163 150 156 168 173 106 132 149 164 149 108 121 286 185 155 87 92 71 62 49 46 82 185 129 130 138 203 220 220 198 198 200 197 200 213 179 169 168 171 164 156 154
328 341 339 341 351 20 66 90 93 120 133 140 149 155 146 137 116 127 145 159 167 114 122 124 175 199 127 77 90 58 49 59 20 62 306 117 136 212 222 186 205 188 181 191 188 188 168 167 160 161 163 160 149 154
317 332 345 338 321 0 13 65 116 128 136 117 127 83 77 102 124 131 108 103 99 89 100 123 116 108 112 76 81 130 57 96 175 154 123 147 246 248 227 208 229 211 198 179 143 136 147 147 155 160 165 165 175 168
306 318 338 346 316 344 17 28 63 162 159 87 65 58 126 116 88 59 78 97 145 57 151 163 164 129 125 145 85 39 66 37 54 222 188 181 267 236 197 201 207 203 198 196 194 183 181 176 173 173 172 175 174 166
292 305 323 344 327 341 10 125 44 183 125 105 117 108 84 82 72 88 117 163 178 177 133 128 113 112 107 106 103 141 117 126 244 136 69 266 255 229 175 175 169 179 187 184 184 175 177 177 177 175 176 172 169 167
276 294 309 334 324 316 356 130 115 108 97 82 63 68 62 346 52 135 192 211 160 162 161 148 134 133 116 107 88 111 133 205 107 115 221 225 258 197 165 158 151 166 174 170 171 173 175 175 178 179 169 166 162 160
261 277 286 319 281 272 55 166 164 171 24 91 125 139 171 224 246 184 186 170 174 133 137 129 119 126 135 129 151 149 143 158 193 228 234 235 200 162 158 147 140 143 152 153 159 166 169 176 172 166 164 164 161 161
247 251 252 251 215 204 103 176 195 184 321 65 72 159 200 62 92 185 138 119 110 136 122 113 66 85 107 135 186 106 97 213 205 229 235 247 153 151 141 135 133 135 140 145 153 156 159 161 161 161 162 162 168 171
232 242 221 205 200 190 144 155 176 216 322 65 61 68 65 105 66 102 117 104 120 114 99 75 96 84 110 110 111 211 159 222 234 221 292 134 145 145 141 138 138 136 139 144 147 148 151 155 157 160 164 171 177 186
211 209 193 172 172 171 159 159 147 77 57 44 49 61 100 89 82 71 116 117 119 108 117 163 108 136 99 139 200 193 208 284 319 71 121 146 148 150 146 138 133 139 140 142 147 151 157 160 161 161 161 159 163 167
203 205 179 151 146 137 117 81 88 71 66 29 78 34 61 106 114 109 131 140 251 141 134 90 122 153 164 191 263 172 115 76 83 100 118 139 146 145 144 144 145 147 147 148 152 155 157 158 160 162 166 167 170 170
190 192 165 158 146 119 93 71 56 92 53 16 64 69 88 98 104 114 85 64 69 86 102 58 73 100 248 185 138 135 144 130 111 103 111 131 144 151 152 150 149 149 152 153 155 154 152 154 159 160 164 165 173 176
165 156 145 155 145 98 94 77 81 94 97 49 71 57 81 93 121 103 85 93 56 63 41 42 257 260 251 83 149 142 139 133 124 106 101 113 127 139 142 144 140 139 140 139 142 147 150 148 146 146 149 155 163 172
157 144 135 136 95 77 87 86 69 89 116 88 90 66 55 76 78 54 30 21 53 47 31 29 45 72 80 92 119 132 132 134 124 126 126 118 126 127 128 128 131 135 138 141 143 138 135 131 140 145 145 152 193 256
158 155 132 97 90 82 79 57 111 113 74 102 87 82 51 31 3 23 14 46 51 18 57 91 96 102 101 102 119 121 123 128 130 127 127 128 125 122 121 122 126 120 116 117 121 129 126 125 129 137 156 208 250 260
145 149 100 86 89 69 108 69 85 44 97 112 69 63 27 42 33 35 47 27 38 109 114 98 93 96 101 108 106 99 105 125 123 119 116 118 120 122 124 115 107 119 127 125 123 127 131 136 148 174 211 238 248 258
130 98 92 85 90 177 122 30 97 94 68 67 83 94 45 170 104 55 98 294 108 149 136 120 118 113 112 112 108 109 118 128 128 134 134 134 130 128 129 125 118 117 122 140 150 159 163 173 196 217 243 265 276 282
109 8 99 54 98 84 78 29 24 69 99 108 89 85 273 100 76 52 158 274 158 154 156 154 152 148 143 137 135 134 132 144 142 136 132 143 144 142 144 148 150 146 141 155 163 181 208 241 249 264 277 285 288 291
84 254 110 166 181 117 169 125 157 157 121 74 122 95 73 85 71 198 252 16 155 167 173 177 178 171 162 163 154 145 142 137 146 141 133 138 118 111 142 151 160 155 176 203 242 266 277 274 283 291 297 302 304 304
110 238 154 124 130 122 79 65 100 97 104 138 173 84 79 80 200 268 43 58 137 157 162 158 164 174 160 153 153 152 154 150 159 146 143 151 153 161 174 176 191 174 171 209 258 292 309 312 311 310 309 308 307 307
131 149 135 199 89 92 119 85 113 149 167 148 96 79 126 156 146 60 53 119 132 134 140 139 130 137 140 137 136 139 142 150 156 155 156 150 141 137 138 145 138 140 144 95 339 324 321 319 318 316 315 314 315 316
81 120 117 56 55 49 120 144 177 157 145 116 109 124 97 71 94 101 107 127 131 136 138 136 134 142 140 139 139 141 146 156 167 166 162 139 133 124 126 121 119 123 341 326 326 327 326 324 322 323 323 322 320 319
130 108 94 72 89 98 310 78 102 116 103 101 103 106 95 90 99 108 114 130 142 140 136 135 135 146 145 150 150 153 155 154 150 152 145 151 148 146 140 135 82 341 334 332 330 330 331 332 331 329 325 323 321 320
118 99 72 55 69 29 101 111 111 100 84 86 109 110 113 112 97 103 110 107 123 137 138 132 129 135 143 149 156 157 136 124 113 111 116 126 128 123 110 23 342 336 337 339 339 339 340 337 334 333 333 332 333 336
93 100 114 97 90 87 112 97 79 91 96 98 82 95 103 92 73 102 115 139 143 142 144 147 155 149 145 145 140 132 126 123 115 108 105 103 100 86 27 353 349 349 347 348 351 349 346 346 345 344 344 346 349 354
73 73 82 87 57 50 55 91 60 67 53 72 73 98 78 82 116 115 133 164 173 179 174 166 153 143 135 132 130 126 121 115 108 103 96 84 59 32 15 6 5 7 9 7 5 4 0 356 354 356 359 6 13 19
Wind_Speed_850mb
65 75 79 77 72 57 46 38 34 30 18 35 40 30 99 115 110 105 80 58 56 17 16 26 29 16 32 42 28 11 21 18 5 14 15 7 8 11 7 7 10 15 15 7 5 2 22 13 10 18 9 2 3 28
61 72 73 75 67 49 31 23 27 21 21 51 63 74 114 95 95 93 73 53 39 24 16 20 21 13 16 28 35 23 9 9 10 7 6 7 4 5 11 9 7 7 9 12 15 12 5 14 5 12 7 8 10 21
54 64 70 67 54 46 25 15 18 11 27 54 58 94 112 94 82 73 69 64 43 18 16 9 7 9 17 30 20 27 11 19 20 15 8 5 6 7 10 8 8 4 3 7 7 11 14 14 21 9 16 5 11 13
48 54 60 57 51 46 15 8 10 11 20 42 61 78 95 85 73 58 62 57 42 18 6 4 9 14 38 30 45 34 14 25 25 23 5 5 6 7 5 4 7 7 17 12 8 7 4 16 27 30 19 13 18 24
35 50 56 57 50 42 12 5 7 12 18 26 72 93 106 88 73 54 43 54 53 24 7 8 12 13 20 30 47 31 40 21 11 6 5 5 7 8 4 3 6 10 13 13 13 21 17 17 50 39 41 41 41 48
34 38 51 58 47 35 27 1 9 14 24 20 61 46 86 82 86 64 14 48 58 42 11 5 8 8 8 11 21 35 35 30 7 8 5 7 12 7 8 9 10 41 36 28 10 25 25 8 25 41 46 49 50 50
32 32 37 48 52 37 30 19 11 19 24 27 27 43 54 68 68 33 16 38 55 33 8 4 2 7 11 17 9 8 15 8 7 8 4 6 4 18 6 8 9 42 52 40 25 34 18 33 29 48 49 50 50 49
27 29 28 37 43 37 29 32 22 17 23 32 35 48 49 48 40 24 37 61 49 20 11 4 4 3 6 6 5 5 7 7 11 5 2 5 8 2 7 10 12 20 33 32 37 33 26 35 43 54 55 60 58 61
23 25 24 23 29 38 28 32 40 42 64 66 64 62 56 32 16 20 34 39 31 11 6 4 7 4 7 6 6 9 7 4 5 2 1 3 5 9 11 9 18 22 34 37 45 28 38 55 67 67 69 68 65 65
20 19 22 18 25 23 23 16 25 31 41 36 42 12 10 18 47 39 13 7 5 3 6 4 4 5 7 2 4 4 2 2 2 0 6 0 5 13 11 13 15 28 33 48 50 33 53 55 67 73 75 51 61 68
17 16 16 17 23 19 12 7 8 26 19 5 9 10 42 27 9 9 5 6 4 3 7 6 8 6 5 3 5 7 3 3 2 2 4 1 6 7 30 27 25 26 38 51 55 54 58 70 83 81 70 74 72 65
15 13 12 13 17 13 8 4 7 10 9 13 35 33 11 6 7 7 1 3 3 4 7 4 5 8 8 7 5 5 3 1 5 4 7 5 7 13 28 31 30 39 48 52 49 54 57 65 75 79 80 68 60 56
14 11 9 9 9 7 9 21 41 50 40 21 13 7 5 4 10 9 9 4 3 7 13 10 6 9 9 7 5 4 5 5 5 2 7 8 5 13 29 34 40 39 41 44 47 51 52 58 69 76 68 57 52 45
13 9 6 5 3 5 5 35 30 23 6 2 8 5 5 2 5 4 3 5 4 14 25 20 5 6 8 5 5 8 4 6 5 5 10 5 14 25 35 42 49 44 44 43 42 42 46 56 61 61 56 54 51 41
12 9 6 2 6 6 5 41 31 19 6 3 5 3 5 1 3 2 10 12 9 31 32 12 9 4 3 6 4 7 4 8 9 8 6 5 23 38 46 48 49 47 46 45 43 43 47 55 61 57 51 50 45 42
12 10 8 3 9 13 9 22 25 9 1 4 6 4 2 3 3 4 16 13 22 34 22 12 5 3 2 3 3 7 8 10 7 5 3 22 39 43 47 50 47 44 40 42 46 53 55 53 50 51 49 45 41 40
14 8 7 6 10 14 18 14 5 4 5 5 4 8 8 8 4 5 19 21 20 5 4 5 6 3 4 2 4 5 6 4 4 5 21 36 49 57 56 54 51 49 52 52 51 50 49 49 49 50 48 43 38 34
18 10 9 13 18 22 17 6 6 6 6 7 3 4 5 9 21 21 23 9 2 3 3 3 6 4 5 5 4 3 3 10 18 22 32 40 50 52 52 55 53 51 51 49 46 45 45 46 46 44 40 37 32 27
15 12 13 24 16 9 6 6 6 6 2 4 7 12 17 20 29 24 13 13 13 12 11 5 5 1 3 1 4 10 18 12 16 28 34 37 45 48 52 53 51 49 49 48 48 48 45 37 32 30 26 24 19 15
17 16 18 21 12 7 7 7 6 9 3 4 6 9 12 12 21 19 14 8 7 6 9 5 1 2 2 3 10 28 34 46 55 48 41 37 38 44 47 48 49 49 48 44 41 37 33 28 21 18 17 13 9 7
25 21 25 23 16 11 8 6 8 6 9 6 7 10 10 12 11 11 14 15 14 4 4 10 11 22 24 23 25 40 45 40 48 51 56 51 48 55 55 52 47 41 37 33 29 24 18 14 15 14 11 7 3 4
25 25 15 11 9 7 9 7 10 10 7 7 8 8 7 5 5 10 9 17 5 7 7 16 29 32 33 32 34 32 32 33 49 59 60 59 54 45 39 34 29 28 23 19 15 15 16 15 12 9 5 4 6 8
29 22 8 7 8 7 2 3 6 6 6 1 5 6 5 4 5 6 5 4 6 10 26 30 35 35 40 39 34 31 28 39 49 47 41 37 33 30 30 26 18 18 22 23 19 15 14 11 8 7 7 8 10 12
23 8 6 6 7 3 4 5 6 7 5 5 6 5 2 2 3 6 3 2 6 25 26 27 24 32 33 30 32 34 34 34 35 34 30 28 32 31 25 27 26 24 19 17 17 14 11 8 7 8 9 13 17 22
7 5 8 6 5 9 7 5 5 6 4 2 7 4 2 4 5 5 2 2 17 27 28 27 25 25 31 28 27 26 24 19 26 34 27 18 25 31 27 23 20 16 13 10 11 8 5 6 9 12 16 21 25 29
8 3 7 9 2 7 8 7 7 9 7 6 3 2 4 6 6 1 1 6 14 27 30 28 28 22 23 24 27 24 26 22 21 33 31 22 16 14 18 16 15 13 10 8 5 5 7 9 12 16 20 25 31 37
7 4 4 5 10 13 8 8 8 7 7 8 6 5 6 7 2 3 4 6 10 24 28 21 16 16 27 30 24 23 26 29 26 26 27 26 20 14 10 6 9 7 6 3 3 3 5 9 16 22 28 33 37 41
6 9 11 4 7 6 9 6 6 6 6 7 8 6 10 11 3 6 6 12 31 39 33 25 22 24 31 30 31 33 33 30 28 27 28 25 17 11 9 8 9 7 3 1 3 8 16 21 26 31 34 35 36 38
4 14 23 9 7 6 3 7 6 5 21 10 8 5 5 8 11 15 17 25 35 34 32 35 35 33 33 32 29 27 26 25 25 27 23 24 20 17 14 10 7 4 2 9 16 22 27 30 32 31 31 32 36 41
2 7 9 5 7 2 1 4 11 23 21 22 19 21 22 23 29 27 24 22 30 33 34 34 34 29 31 28 28 27 22 17 11 9 9 16 17 19 13 8 2 7 14 19 24 26 27 27 27 29 32 35 37 38
15 10 10 7 7 9 21 42 48 41 30 32 41 40 26 18 36 30 28 27 25 32 36 36 30 22 19 21 21 20 19 15 14 14 15 19 20 13 7 3 9 15 20 23 24 24 25 27 30 32 33 35 36 36
7 7 8 8 6 8 21 19 15 15 16 21 13 15 13 11 10 8 18 25 24 24 20 17 15 23 23 22 19 17 21 28 25 23 20 16 12 7 5 10 15 18 19 19 20 23 25 27 30 33 34 33 32 30
11 16 19 10 5 5 9 12 10 8 13 8 8 7 7 7 6 6 10 19 22 22 23 24 26 32 29 25 27 29 27 24 22 18 14 11 9 9 12 13 13 14 16 19 21 24 27 31 33 32 30 27 25 25
Wind_Direction_850mb
332 334 335 335 333 329 324 328 331 320 252 204 211 177 160 167 170 165 162 174 170 100 129 180 182 162 194 197 210 186 199 203 283 156 184 179 167 199 138 145 170 161 154 171 148 161 253 154 91 173 220 26 128 191
336 343 341 336 337 335 325 331 344 347 150 152 164 163 163 152 154 167 166 180 174 164 124 134 165 158 174 200 222 222 269 161 186 128 145 133 140 147 158 193 180 183 175 170 189 206 265 217 194 209 203 183 166 185
342 345 345 343 342 352 333 337 358 52 176 174 173 167 170 171 171 175 173 172 168 106 90 128 163 259 282 260 256 229 253 231 181 150 125 124 166 152 171 204 86 238 174 151 109 239 230 227 230 210 193 172 182 206
347 351 352 349 348 3 346 6 24 107 151 181 185 180 180 163 166 172 178 180 174 134 121 153 175 221 257 264 256 243 230 234 175 148 106 150 133 195 177 142 139 175 151 166 254 262 3 257 232 222 212 207 184 169
343 357 1 360 352 6 13 32 85 101 118 148 173 173 179 177 177 176 168 179 187 180 157 141 154 200 223 245 245 238 240 213 176 125 118 149 127 136 68 86 208 190 171 182 212 179 184 213 221 210 198 189 181 167
335 343 3 9 4 9 21 170 149 123 138 126 161 162 191 191 192 177 141 186 192 187 140 138 159 164 207 209 232 236 239 216 216 108 135 161 151 132 160 197 222 199 208 208 204 190 197 221 203 201 190 180 172 170
342 333 353 10 14 12 26 55 98 164 153 155 149 163 153 157 160 162 176 172 172 167 121 27 70 169 159 139 126 102 144 126 126 111 129 135 149 166 161 207 217 205 213 208 185 151 120 164 182 186 182 168 163 158
338 338 339 4 13 30 59 39 54 176 175 176 163 150 156 168 173 106 132 149 164 149 108 121 286 185 155 87 92 71 62 49 46 82 185 129 130 138 203 220 220 198 198 200 197 200 213 179 169 168 171 164 156 154
328 341 339 341 351 20 66 90 93 120 133 140 149 155 146 137 116 127 145 159 167 114 122 124 175 199 127 77 90 58 49 59 20 62 306 117 136 212 222 186 205 188 181 191 188 188 168 167 160 161 163 160 149 154
317 332 345 338 321 0 13 65 116 128 136 117 127 83 77 102 124 131 108 103 99 89 100 123 116 108 112 76 81 130 57 96 175 154 123 147 246 248 227 208 229 211 198 179 143 136 147 147 155 160 165 165 175 168
306 318 338 346 316 344 17 28 63 162 159 87 65 58 126 116 88 59 78 97 145 57 151 163 164 129 125 145 85 39 66 37 54 222 188 181 267 236 197 201 207 203 198 196 194 183 181 176 173 173 172 175 174 166
292 305 323 344 327 341 10 125 44 183 125 105 117 108 84 82 72 88 117 163 178 177 133 128 113 112 107 106 103 141 117 126 244 136 69 266 255 229 175 175 169 179 187 184 184 175 177 177 177 175 176 172 169 167
276 294 309 334 324 316 356 130 115 108 97 82 63 68 62 346 52 135 192 211 160 162 161 148 134 133 116 107 88 111 133 205 107 115 221 225 258 197 165 158 151 166 174 170 171 173 175 175 178 179 169 166 162 160
261 277 286 319 281 272 55 166 164 171 24 91 125 139 171 224 246 184 186 170 174 133 137 129 119 126 135 129 151 149 143 158 193 228 234 235 200 162 158 147 140 143 152 153 159 166 169 176 172 166 164 164 161 161
247 251 252 251 215 204 103 176 195 184 321 65 72 159 200 62 92 185 138 119 110 136 122 113 66 85 107 135 186 106 97 213 205 229 235 247 153 151 141 135 133 135 140 145 153 156 159 161 161 161 162 162 168 171
232 242 221 205 200 190 144 155 176 216 322 65 61 68 65 105 66 102 117 104 120 114 99 75 96 84 110 110 111 211 159 222 234 221 292 134 145 145 141 138 138 136 139 144 147 148 151 155 157 160 164 171 177 186
211 209 193 172 172 171 159 159 147 77 57 44 49 61 100 89 82 71 116 117 119 108 117 163 108 136 99 139 200 193 208 284 319 71 121 146 148 150 146 138 133 139 140 142 147 151 157 160 161 161 161 159 163 167
203 205 179 151 146 137 117 81 88 71 66 29 78 34 61 106 114 109 131 140 251 141 134 90 122 153 164 191 263 172 115 76 83 100 118 139 146 145 144 144 145 147 147 148 152 155 157 158 160 162 166 167 170 170
190 192 165 158 146 119 93 71 56 92 53 16 64 69 88 98 104 114 85 64 69 86 102 58 73 100 248 185 138 135 144 130 111 103 111 131 144 151 152 150 149 149 152 153 155 154 152 154 159 160 164 165 173 176
165 156 145 155 145 98 94 77 81 94 97 49 71 57 81 93 121 103 85 93 56 63 41 42 257 260 251 83 149 142 139 133 124 106 101 113 127 139 142 144 140 139 140 139 142 147 150 148 146 146 149 155 163 172
157 144 135 136 95 77 87 86 69 89 116 88 90 66 55 76 78 54 30 21 53 47 31 29 45 72 80 92 119 132 132 134 124 126 126 118 126 127 128 128 131 135 138 141 143 138 135 131 140 145 145 152 193 256
158 155 132 97 90 82 79 57 111 113 74 102 87 82 51 31 3 23 14 46 51 18 57 91 96 102 101 102 119 121 123 128 130 127 127 128 125 122 121 122 126 120 116 117 121 129 126 125 129 137 156 208 250 260
145 149 100 86 89 69 108 69 85 44 97 112 69 63 27 42 33 35 47 27 38 109 114 98 93 96 101 108 106 99 105 125 123 119 116 118 120 122 124 115 107 119 127 125 123 127 131 136 148 174 211 238 248 258
130 98 92 85 90 177 122 30 97 94 68 67 83 94 45 170 104 55 98 294 108 149 136 120 118 113 112 112 108 109 118 128 128 134 134 134 130 128 129 125 118 117 122 140 150 159 163 173 196 217 243 265 276 282
109 8 99 54 98 84 78 29 24 69 99 108 89 85 273 100 76 52 158 274 158 154 156 154 152 148 143 137 135 134 132 144 142 136 132 143 144 142 144 148 150 146 141 155 163 181 208 241 249 264 277 285 288 291
84 254 110 166 181 117 169 125 157 157 121 74 122 95 73 85 71 198 252 16 155 167 173 177 178 171 162 163 154 145 142 137 146 141 133 138 118 111 142 151 160 155 176 203 242 266 277 274 283 291 297 302 304 304
110 238 154 124 130 122 79 65 100 97 104 138 173 84 79 80 200 268 43 58 137 157 162 158 164 174 160 153 153 152 154 150 159 146 143 151 153 161 174 176 191 174 171 209 258 292 309 312 311 310 309 308 307 307
131 149 135 199 89 92 119 85 113 149 167 148 96 79 126 156 146 60 53 119 132 134 140 139 130 137 140 137 136 139 142 150 156 155 156 150 141 137 138 145 138 140 144 95 339 324 321 319 318 316 315 314 315 316
81 120 117 56 55 49 120 144 177 157 145 116 109 124 97 71 94 101 107 127 131 136 138 136 134 142 140 139 139 141 146 156 167 166 162 139 133 124 126 121 119 123 341 326 326 327 326 324 322 323 323 322 320 319
130 108 94 72 89 98 310 78 102 116 103 101 103 106 95 90 99 108 114 130 142 140 136 135 135 146 145 150 150 153 155 154 150 152 145 151 148 146 140 135 82 341 334 332 330 330 331 332 331 329 325 323 321 320
118 99 72 55 69 29 101 111 111 100 84 86 109 110 113 112 97 103 110 107 123 137 138 132 129 135 143 149 156 157 136 124 113 111 116 126 128 123 110 23 342 336 337 339 339 339 340 337 334 333 333 332 333 336
93 100 114 97 90 87 112 97 79 91 96 98 82 95 103 92 73 102 115 139 143 142 144 147 155 149 145 145 140 132 126 123 115 108 105 103 100 86 27 353 349 349 347 348 351 349 346 346 345 344 344 346 349 354
73 73 82 87 57 50 55 91 60 67 53 72 73 98 78 82 116 115 133 164 173 179 174 166 153 143 135 132 130 126 121 115 108 103 96 84 59 32 15 6 5 7 9 7 5 4 0 356 354 356 359 6 13 19